Current weather by "City, St" or "zip code"  
 

Current Conditions: Portland-Hillsboro Airport, OR

Overcast


48.0 F

Last Updated on Oct 24 2020, 10:53 am PDT
Humidity: 80%
Wind Speed: NE 9.2 mph
Barometer 30.15 in
Dewpoint: 42.1 F
Visibility: 10.00 mi
Precip: --
Heat Index: NA
Wind Chill: 44 F
Current conditions at:

Portland-Hillsboro Airport, OR (KHIO)

Lat: 45.54765 Lon: 122.95568

Local Radar Image active severe weather and emergency alerts image image weather storm and storm spotter reports image weather observation monitoring service image
Local
Radar
Active
Alerts
Storm Reports Obs
Monitoring

Sign-up For Email & Text Message Weather Alert Notification Services



Advertise Here

Observation History for Portland-Hillsboro Airport, OR


Time Wind
(mph)
Vis
(mi)
Weather Precip (in) Temperature (F) Relative
Humidity
Wind
Chill
(F)
Heat
Index
(F)
Pressure
Air Dwpt altimeter
(in)
sea level
(mb)
Rmks
10:53 am PDT NE 9.2 10.00 Overcast -- 48.0 42.1 80% 44 NA 30.15 1020.9
9:53 am PDT NE 9.2 10.00 Overcast -- 49.0 44.1 83% 45 NA 30.12 1020.1
8:53 am PDT NE 9.2 10.00 Mostly Cloudy -- 47.0 44.1 90% 43 NA 30.10 1019.2
7:53 am PDT N 0.0 10.00 Mostly Cloudy Trace 48.0 46.0 93% NA NA 30.06 1018.0
6:53 am PDT N 6.9 9.00 Light Rain Trace 49.0 46.0 90% 46 NA 30.06 1017.7
5:53 am PDT NW 10.4 10.00 Overcast -- 50.0 46.0 86% 46 NA 30.02 1016.6
4:53 am PDT NW 10.4 10.00 Overcast -- 50.0 46.0 86% 46 NA 30.00 1015.8
3:53 am PDT NW 8.1 10.00 Overcast -- 49.0 46.9 93% 46 NA 29.98 1015.3
2:53 am PDT N 0.0 9.00 Overcast -- 47.0 46.9 100% NA NA 29.95 1014.4
1:53 am PDT SE 3.5 9.00 Fair -- 44.0 44.1 100% NA NA 29.93 1013.7
12:53 am PDT N 0.0 6.00 Fog/Mist -- 45.0 44.1 97% NA NA 29.92 1013.4
11:53 pm PDT N 0.0 10.00 Partly Cloudy -- 48.0 46.9 96% NA NA 29.91 1012.8
10:53 pm PDT N 0.0 10.00 Fair -- 48.0 46.0 93% NA NA 29.90 1012.5
9:53 pm PDT SE 3.5 10.00 Overcast -- 52.0 48.0 86% NA NA 29.89 1012.0
8:53 pm PDT N 0.0 10.00 Overcast -- 51.0 46.9 86% NA NA 29.89 1012.2
7:53 pm PDT N 0.0 10.00 Overcast -- 55.0 50.0 83% NA NA 29.90 1012.5
6:53 pm PDT S 4.6 10.00 Overcast -- 56.0 48.9 77% 55 NA 29.91 1012.8
5:53 pm PDT N 0.0 10.00 Overcast -- 56.0 46.0 70% NA NA 29.91 1012.8
4:53 pm PDT S 3.5 10.00 Overcast -- 56.0 45.0 67% NA NA 29.92 1013.4
3:53 pm PDT S 8.1 10.00 Overcast -- 55.0 43.0 64% 53 NA 29.95 1014.2
2:53 pm PDT N 0.0 10.00 Overcast -- 53.0 39.9 61% NA NA 29.97 1015.1
1:53 pm PDT N 0.0 10.00 Overcast -- 50.0 37.9 63% NA NA 30.00 1015.9
12:53 pm PDT S 5.8 10.00 Overcast -- 47.0 37.0 69% 44 NA 30.03 1017.1
11:53 am PDT S 4.6 10.00 Overcast -- 45.0 37.9 77% 43 NA 30.08 1018.6

Regional Weather Observation


Portland-Hillsboro Airport, OR (KHIO)

Overcast
48.0 F

Pearson Airfield, WA (KVUO)

Overcast
48.0 F

McMinnville, McMinnville Municipal Airport, OR (KMMV)

Mostly Cloudy
57.0 F

Portland, Portland International Airport, OR (KPDX)

Mostly Cloudy
48.0 F

Tillamook, Tillamook Airport, OR (KTMK)

Overcast
54.0 F

Aurora State Airport, OR (KUAO)

Overcast
49.0 F